Home > Weather > Olsztyn > Past weeks

Flag for Poland Past Weather in Olsztyn, Poland — Yesterday and Last 2 Weeks

Now
71 °F

Mild.


Feels Like: 75 °F
Forecast: 59 / 76 °F
Wind: 2 mph from North

Location: Ketrzyn

Current Time: Jul 29, 2016 at 12:24:33 PM

Latest Report: Jul 29, 2016 at 11:00 AM


Visibility: 17 mi

Pressure: 29.91 "Hg

Humidity: 68%

Dew Point: 60 °F

Location of OlsztynLocation

Past Weather in Olsztyn — Graph

°F

Olsztyn Temperature Yesterday

Maximum temperature yesterday: 80 °F (at 3:00 PM)
Minimum temperature yesterday: 65 °F (at 5:00 AM)
Average temperature yesterday: 72 °F

High & Low Weather Summary for the Past Weeks

 TemperatureHumidityPressure
High84 °F (Jul 26, 4:00 PM)99% (Jul 20, 6:00 AM)30.17 "Hg (Jul 20, 6:00 AM)
Low52 °F (Jul 19, 12:00 AM)44% (Jul 19, 4:00 PM)29.53 "Hg (Jul 15, 1:00 AM)
Average66 °F79%30.00 "Hg
* Reported Jul 14 11:00 AM — Jul 29 11:00 AM, Olsztyn, Weather by CustomWeather, © 2016

Note: Actual official high and low records may vary slightly from our data, if they occured in-between our weather recording intervals... More about our weather records

Advertising

Olsztyn Weather History for the Previous 24 Hours

Scroll right to see more
 ConditionsComfort  
Time TempWeatherWind HumidityBarometerVisibility
11:00 AM
Fri, Jul 29
71 °FMild.2 mph68%29.91 "Hg17 mi
10:00 AM70 °FMild.3 mph75%29.93 "Hg13 mi
9:00 AM65 °FFog.2 mph95%29.93 "Hg7 mi
8:00 AM64 °FMild.2 mph99%29.93 "Hg2 mi
7:00 AM62 °FDuststorm.1 mph99%29.93 "Hg1 mi
6:00 AM60 °FDuststorm.1 mph99%29.93 "Hg0 mi
5:00 AM59 °FDuststorm.1 mph98%29.93 "Hg0 mi
4:00 AM61 °FDuststorm.1 mph99%29.94 "Hg0 mi
2:00 AM61 °FDuststorm.1 mph98%29.95 "Hg0 mi
1:00 AM61 °FDuststorm.1 mph97%29.94 "Hg0 mi
6:00 PM
Thu, Jul 28
76 °FMild.5 mph71%29.90 "Hg19 mi
5:00 PM76 °FRain showers. Cloudy.5 mph71%29.89 "Hg11 mi
3:00 PM80 °FWarm.5 mph62%29.90 "Hg14 mi
2:00 PM80 °FWarm.3 mph65%29.90 "Hg12 mi
1:00 PM78 °FWarm.3 mph70%29.91 "Hg11 mi
12:00 PM75 °FMild.2 mph78%29.91 "Hg9 mi
Weather by CustomWeather, © 2016

See weather overviewHow to use our weather pages